This is the latest recevied weather packets stored in our database for station/object DM0MR. If no packets are shown the sender has not sent any weather packets the latest 1 day(s).
| Time | Temp. | Humidity | Pressure | Rain* | Wind** | Luminosity | Snow |
|---|---|---|---|---|---|---|---|
| 1778100103 | 13.33° C | 99% | 996.5 hPa | 0 mm | - | - | - |
| 1778099203 | 13.33° C | 99% | 996.6 hPa | 0 mm | - | - | - |
| 1778097402 | 13.33° C | 99% | 996.4 hPa | 0 mm | - | - | - |
| 1778095602 | 13.33° C | 99% | 996.1 hPa | 1.02 mm | - | - | - |
| 1778094703 | 13.33° C | 99% | 995.7 hPa | 1.78 mm | - | - | - |
| 1778092903 | 13.33° C | 98% | 995.5 hPa | 2.54 mm | - | - | - |
| 1778089303 | 14.44° C | 93% | 995.2 hPa | 0 mm | - | - | - |
| 1778088401 | 15° C | 90% | 994.9 hPa | 0 mm | - | - | - |
| 1778087502 | 15.56° C | 88% | 994.6 hPa | 0 mm | - | - | - |
| 1778083001 | 18.33° C | 81% | 994.4 hPa | 0.25 mm | - | - | - |
| 1778082103 | 17.78° C | 81% | 994.3 hPa | 0.25 mm | - | - | - |
| 1778081202 | 17.22° C | 82% | 994.4 hPa | 1.78 mm | - | - | - |
| 1778078502 | 17.22° C | 79% | 994.4 hPa | 1.78 mm | - | - | - |
| 1778076701 | 20.56° C | 62% | 994.5 hPa | 0 mm | - | - | - |
| 1778073102 | 23.33° C | 58% | 994.8 hPa | 0 mm | - | - | - |
| 1778070401 | 21.11° C | 63% | 995 hPa | 0 mm | - | - | - |
| 1778065901 | 19.44° C | 72% | 994.9 hPa | 0 mm | - | - | - |
| 1778063202 | 21.11° C | 72% | 995.2 hPa | 0 mm | - | - | - |
| 1778062300 | 17.22° C | 81% | 995.1 hPa | 0 mm | - | - | - |
| 1778061402 | 18.33° C | 77% | 995.1 hPa | 0 mm | - | - | - |
| 1778060503 | 20° C | 75% | 994.9 hPa | 0 mm | - | - | - |
| 1778058702 | 21.11° C | 77% | 994.9 hPa | 0 mm | - | - | - |
| 1778055102 | 14.44° C | 99% | 994.7 hPa | 0 mm | - | - | - |
| 1778054201 | 13.89° C | 99% | 994.7 hPa | 0 mm | - | - | - |
| 1778053300 | 13.33° C | 99% | 994.8 hPa | 0 mm | - | - | - |
* Rain latest hour (hover to see other rain measurements)
** Current wind speed in m/s (hover to see current wind gust speed)